Powrót do katalogu

FENGYUN 1C DEB

AktywnySSO
NORAD 37054·DEBRIS·🇨🇳 China

Wystrzelony May 10, 1999 z Taiyuan Satellite Launch Center

Loading…

Następne Przeloty (najbliższe 24 godziny)

TLE

Starzejące sięSource: Space-Track

Epoka: Sep 9, 2026, 16:19 UTC

1 37054U 99025EEN 26252.68030746  .00000351  00000-0  17625-3 0  9998
2 37054  98.5782 231.3724 0100859  42.4855 318.4073 14.19773546682732

Śledź FENGYUN 1C DEB w czasie rzeczywistym z AllMySat

Download on the App Store